TimeAST,TemperatureF,Dew PointF,Humidity,Sea Level PressureIn,VisibilityMPH,Wind Direction,Wind SpeedMPH,Gust SpeedMPH,PrecipitationIn,Events,Conditions,WindDirDegrees,DateUTC
12:56 AM,73.9,70.0,87,29.99,10.0,Calm,Calm,-,N/A,,Overcast,0,2012-03-26 04:56:00
1:56 AM,73.9,70.0,87,29.97,10.0,Calm,Calm,-,N/A,,Mostly Cloudy,0,2012-03-26 05:56:00
2:56 AM,73.0,69.1,87,29.95,10.0,South,3.5,-,N/A,,Mostly Cloudy,180,2012-03-26 06:56:00
3:56 AM,73.0,69.1,87,29.94,10.0,Calm,Calm,-,N/A,,Scattered Clouds,0,2012-03-26 07:56:00
4:56 AM,73.0,69.1,87,29.95,10.0,Calm,Calm,-,N/A,,Scattered Clouds,0,2012-03-26 08:56:00
5:56 AM,73.0,69.1,87,29.96,10.0,Calm,Calm,-,N/A,,Mostly Cloudy,0,2012-03-26 09:56:00
6:56 AM,73.0,69.1,87,29.97,9.0,Calm,Calm,-,N/A,,Mostly Cloudy,0,2012-03-26 10:56:00
7:56 AM,77.0,69.1,76,29.98,9.0,Calm,Calm,-,N/A,,Mostly Cloudy,0,2012-03-26 11:56:00
8:56 AM,80.1,69.1,69,30.00,9.0,Calm,Calm,-,N/A,,Scattered Clouds,0,2012-03-26 12:56:00
9:56 AM,81.0,70.0,69,30.00,9.0,North,4.6,-,N/A,,Scattered Clouds,350,2012-03-26 13:56:00
10:56 AM,81.0,69.1,67,30.01,9.0,North,6.9,-,N/A,,Scattered Clouds,360,2012-03-26 14:56:00
11:56 AM,82.9,73.0,72,29.99,9.0,NE,8.1,-,N/A,,Scattered Clouds,50,2012-03-26 15:56:00
12:56 PM,82.0,71.1,69,29.96,10.0,East,11.5,-,N/A,,Mostly Cloudy,80,2012-03-26 16:56:00
1:56 PM,84.0,71.1,65,29.94,10.0,East,10.4,-,0.01,,Scattered Clouds,100,2012-03-26 17:56:00
2:56 PM,82.9,71.1,67,29.91,10.0,East,9.2,-,N/A,,Scattered Clouds,90,2012-03-26 18:56:00
3:56 PM,84.0,72.0,67,29.90,10.0,East,8.1,-,0.00,,Scattered Clouds,90,2012-03-26 19:56:00
4:56 PM,84.9,68.0,57,29.90,10.0,SSE,6.9,-,N/A,,Scattered Clouds,150,2012-03-26 20:56:00
5:56 PM,82.9,68.0,60,29.91,10.0,SE,5.8,-,N/A,,Scattered Clouds,140,2012-03-26 21:56:00
6:56 PM,82.0,66.9,60,29.92,10.0,SE,6.9,-,N/A,,Scattered Clouds,140,2012-03-26 22:56:00
7:56 PM,80.1,68.0,67,29.94,10.0,South,3.5,-,N/A,,Scattered Clouds,190,2012-03-26 23:56:00
8:56 PM,80.1,70.0,71,29.95,10.0,SSW,3.5,-,N/A,,Scattered Clouds,200,2012-03-27 00:56:00
9:56 PM,79.0,71.1,77,29.97,10.0,SSW,3.5,-,N/A,,Mostly Cloudy,210,2012-03-27 01:56:00
10:56 PM,78.1,71.1,79,29.97,10.0,South,3.5,-,N/A,,Mostly Cloudy,180,2012-03-27 02:56:00
11:56 PM,78.1,71.1,79,29.97,9.0,Calm,Calm,-,N/A,,Mostly Cloudy,0,2012-03-27 03:56:00